Location: Holyhead Bay
(53.3667°N, 4.6667°W)
Time: 19:32:16
(UTC+00:00)

Cosmos 1356 - Pass Details

Date: 24 November 2020
Orbit: 441 x 444 km, 81.1° (Epoch: 16 January)

Event Time Altitude Azimuth Distance (km) Brightness Sun altitude
Rises 17:10:03 0° 354° (N) 2,453 7.0 -8.6°
Maximum altitude 17:15:18 26° 67° (ENE) 926 4.4 -9.4°
Drops below altitude 10° 17:18:13 10° 125° (SE) 1,567 5.8 -9.8°
Sets 17:20:30 0° 139° (SE) 2,434 6.9 -10.1°
